GEFSCGP_500_meanwind_138.txt.gz
Wind_Speed
16 16 16 15 16 16 16 15 15 15 15 16 17 17 19 20 21 21 21 22 23 23 24 25 27 29 31 33 35 38 42 46 49 50 51 52 53 53 52 52 52 51 49 49
14 14 13 12 13 12 12 12 12 12 13 15 15 14 15 17 18 19 19 19 20 20 21 22 24 26 28 30 31 34 39 42 44 47 48 50 52 53 53 52 53 52 51 51
12 11 11 11 11 11 11 11 11 11 11 12 12 13 13 14 14 15 15 16 17 19 20 21 22 23 25 28 30 32 36 39 41 44 45 47 51 53 53 52 51 52 51 50
11 10 10 10 10 10 9 9 9 9 10 10 10 10 11 12 13 13 14 15 15 16 17 18 21 23 24 25 28 31 33 37 40 43 45 46 48 51 52 51 51 52 51 50
9 9 8 9 8 8 8 8 8 8 8 8 8 8 9 10 11 11 12 13 14 15 15 15 18 20 23 24 26 28 30 34 38 41 42 44 45 47 49 50 51 51 51 51
8 8 8 7 6 6 6 6 7 7 6 6 6 7 6 7 9 10 10 11 13 13 13 13 14 15 18 20 23 25 27 30 34 36 39 40 42 44 46 47 49 50 50 50
8 7 7 6 5 5 4 5 5 4 4 4 5 6 6 6 7 9 9 9 10 11 11 11 11 13 14 16 18 21 23 26 30 32 35 37 39 42 43 44 46 48 49 49
7 7 7 6 5 4 5 4 4 3 4 4 5 5 5 6 7 7 7 7 7 7 8 10 10 10 10 12 13 16 19 21 24 28 31 34 35 38 41 42 43 45 47 47
6 6 6 5 5 4 4 3 3 4 4 5 5 5 5 6 6 6 5 5 5 6 7 7 7 7 8 10 11 13 16 18 19 23 28 30 32 34 37 39 41 43 45 46
5 5 5 5 5 4 3 3 3 3 4 5 5 5 5 5 4 4 4 5 5 4 4 5 5 6 7 8 9 11 13 15 17 20 24 27 30 32 33 34 36 39 40 43
5 4 4 4 3 3 3 2 2 3 4 5 6 6 5 5 5 5 5 5 5 4 4 4 4 5 5 5 6 8 9 11 13 15 19 23 26 30 32 32 34 35 37 38
4 4 4 3 3 2 2 2 2 3 4 5 6 5 5 5 5 4 4 4 3 3 4 3 3 2 3 5 6 6 7 9 11 13 16 18 21 25 27 29 29 32 34 36
3 3 3 3 3 2 2 1 2 3 4 5 4 4 4 5 4 4 5 3 3 3 3 3 4 4 4 4 5 6 6 7 9 10 12 15 17 20 23 25 26 28 29 32
3 3 3 3 3 2 2 2 2 3 4 4 4 3 3 3 4 4 4 3 3 3 4 5 5 5 5 5 5 6 7 7 7 8 9 12 14 16 18 20 24 26 28 29
3 3 3 3 3 3 2 2 3 3 3 4 4 3 4 4 4 4 3 3 3 4 5 6 6 6 7 7 7 7 7 7 7 8 10 11 13 15 17 20 22 25 27 30
4 4 5 5 5 5 4 3 3 3 3 4 4 4 5 5 5 4 4 4 4 5 6 7 7 8 9 9 9 8 8 8 9 11 12 13 15 16 18 20 22 24 26 28
5 5 6 7 7 7 6 5 4 4 4 4 4 5 5 5 5 5 5 5 6 7 7 7 7 8 9 9 10 10 10 10 10 12 14 15 16 18 20 21 23 25 28 30
6 6 7 7 7 7 6 6 6 6 5 5 5 6 6 5 5 5 6 6 7 7 7 7 8 9 10 10 11 11 11 12 12 13 15 16 16 17 19 21 23 25 28 30
7 8 8 8 8 8 7 7 7 7 7 7 7 7 6 6 6 6 7 8 9 9 9 10 10 11 12 12 13 14 14 13 14 15 16 17 18 18 20 21 22 24 26 28
9 9 9 9 9 9 8 9 9 8 9 9 9 9 8 8 8 8 8 9 11 11 12 13 13 13 14 14 15 16 16 15 16 16 17 18 20 21 22 23 25 26 27 28
11 11 11 11 11 10 9 10 10 10 10 10 11 11 11 11 10 10 11 12 13 14 15 16 16 16 16 17 18 18 18 18 19 20 20 21 22 23 24 25 26 28 29 30
12 13 13 13 12 11 11 12 12 12 12 12 13 13 14 14 14 14 14 15 16 17 18 18 19 19 19 19 19 19 20 21 22 23 24 25 26 27 28 29 29 30 30 31
13 14 14 14 14 13 14 14 14 15 15 15 16 17 17 17 17 18 18 19 20 20 21 21 21 21 21 21 22 22 23 24 25 25 26 27 29 30 31 32 31 31 31 31
15 15 16 16 16 17 16 17 17 18 18 19 20 20 20 20 21 21 22 22 22 23 23 24 24 24 24 24 24 24 25 26 27 28 28 30 31 33 34 33 33 33 33 33
17 18 19 18 19 19 19 20 21 21 22 22 23 23 24 24 24 25 25 26 26 26 26 26 26 26 27 27 26 27 27 28 28 30 31 32 33 34 34 34 34 35 35 36
20 21 22 21 21 22 22 23 24 25 25 25 26 27 27 27 28 28 29 29 29 29 29 29 29 29 29 29 30 30 30 30 31 32 33 34 34 35 36 37 37 37 37 37

GEFSCGP_500_meanwind_144.txt.gz
Wind_Speed
17 18 18 18 19 20 20 21 22 23 22 21 22 22 22 23 23 24 25 25 25 26 25 27 29 30 31 33 34 36 40 44 47 47 48 49 50 51 51 51 51 51 50 50
15 17 16 17 17 18 19 20 21 21 20 20 20 20 20 20 21 22 23 24 24 25 25 25 25 26 28 30 32 33 35 38 42 44 45 45 45 48 50 50 50 50 51 51
13 13 14 15 16 16 17 18 19 18 18 19 19 18 18 18 18 19 20 21 22 23 23 23 23 24 25 27 28 30 32 34 37 40 43 44 44 46 48 49 49 49 51 52
10 11 12 12 13 14 15 15 15 15 15 15 16 16 16 17 16 17 18 19 19 20 21 21 22 23 23 24 26 27 29 31 35 38 39 42 44 46 46 47 48 48 49 50
9 9 10 10 11 12 12 12 12 12 13 13 13 15 15 15 15 16 17 19 19 19 20 21 21 22 23 24 25 26 27 29 32 35 36 38 40 42 44 44 45 47 47 48
8 9 10 10 10 10 10 11 11 11 11 12 12 14 14 15 15 15 16 16 17 18 18 19 20 21 22 22 23 24 26 27 28 31 34 36 37 39 41 42 42 44 45 47
7 7 8 9 8 8 8 9 9 10 11 11 11 12 13 14 14 14 15 16 17 17 17 17 18 19 19 20 21 22 23 24 26 28 32 34 35 37 39 39 41 41 43 45
5 6 6 7 7 7 7 8 8 9 10 10 10 11 12 13 13 14 15 15 16 17 17 16 16 16 17 17 18 20 21 22 24 25 27 29 31 32 34 36 39 40 41 42
5 5 5 6 7 7 7 7 7 9 10 11 10 10 10 11 13 14 15 15 15 15 15 15 15 16 17 17 17 18 19 19 20 22 23 24 26 28 30 32 34 35 38 40
6 6 6 6 6 7 7 7 8 8 10 10 10 11 11 11 13 14 14 15 14 14 14 15 15 14 15 15 15 15 16 17 16 17 19 21 23 25 28 30 31 32 34 37
6 6 6 7 7 7 8 7 8 9 10 11 11 11 11 11 12 12 13 13 13 13 13 12 12 12 11 12 12 12 13 14 15 16 17 19 21 24 26 28 29 31 31 34
6 6 6 7 7 7 7 8 9 10 11 11 12 12 11 11 11 11 12 11 11 11 12 11 10 10 10 9 9 9 10 11 12 12 14 17 19 22 23 25 27 29 31 32
5 5 5 6 7 7 8 8 9 10 11 12 12 12 11 11 11 11 11 10 10 11 11 11 10 10 9 9 9 9 9 11 12 12 14 15 17 19 20 21 24 27 30 31
5 5 6 7 7 8 8 9 10 11 12 13 12 12 11 11 10 10 9 9 10 11 11 10 10 11 10 10 10 10 10 11 11 13 14 15 16 17 19 20 22 24 27 30
6 6 7 8 9 9 9 10 12 12 13 13 13 12 11 11 10 10 10 11 11 11 11 11 11 11 11 10 11 11 11 11 12 13 14 15 15 16 17 18 19 21 23 25
8 8 9 9 11 11 10 11 12 12 13 13 13 11 11 11 11 10 10 11 11 11 11 11 11 12 11 11 11 12 12 12 12 13 14 14 15 16 16 17 18 20 22 24
10 11 11 11 12 12 11 12 12 12 13 13 12 10 10 10 9 10 10 11 12 12 12 13 13 13 13 12 12 13 13 13 13 13 14 14 14 14 14 16 17 19 21 23
12 13 13 13 13 13 13 13 14 14 13 13 12 11 11 10 10 10 11 12 12 13 14 14 14 14 14 14 15 15 15 16 15 15 15 15 15 16 15 15 16 18 20 22
14 14 14 15 15 14 14 14 15 15 14 13 13 12 12 11 11 12 13 14 14 14 15 15 15 15 16 16 16 16 16 17 17 17 17 17 18 18 18 18 20 20 21 22
15 16 16 16 17 16 16 15 15 15 14 14 14 14 14 14 14 14 15 16 16 16 16 16 16 17 17 17 17 17 18 18 19 19 19 20 19 19 19 20 21 22 24 25
16 17 17 17 18 17 17 16 16 16 16 16 16 16 16 16 16 16 16 17 18 19 18 18 18 19 19 20 20 20 20 20 21 21 21 21 21 21 21 22 23 24 25 26
17 18 18 18 18 17 17 17 17 18 18 17 17 17 17 17 18 18 19 20 21 21 21 22 22 23 23 24 24 24 24 23 23 23 23 23 23 24 24 24 25 26 27 28
18 19 19 19 18 18 18 19 19 19 19 19 19 19 19 20 21 22 22 23 23 24 25 25 26 26 26 26 27 27 27 27 27 26 26 26 26 26 27 27 28 28 29 30
19 20 20 21 20 20 21 22 22 21 21 21 21 21 22 23 24 25 25 26 27 27 28 28 29 29 29 29 30 30 29 29 29 28 28 28 29 29 30 30 31 31 32 32
21 21 22 22 22 22 23 24 24 24 24 24 24 25 26 26 27 27 28 28 29 30 31 31 31 31 31 31 31 31 31 31 30 30 30 30 30 31 32 33 33 34 35 34
23 24 25 25 24 25 25 26 26 27 27 27 28 28 29 30 30 30 29 30 30 31 32 32 32 32 32 32 32 31 31 31 32 32 33 32 32 33 34 35 35 36 36 36

GEFSCGP_500_meanwind_150.txt.gz
Wind_Speed
13 14 16 18 19 19 20 20 20 20 21 22 23 24 25 25 25 26 26 26 27 27 28 28 29 30 32 33 34 34 36 38 41 44 46 46 47 48 49 50 51 50 49 48
10 12 13 15 17 17 18 18 19 19 19 19 20 21 22 23 24 24 25 26 26 26 27 28 29 29 29 30 30 31 32 35 37 39 41 43 46 47 49 51 51 51 50 50
9 10 11 12 13 15 15 16 16 16 16 17 18 18 19 20 21 22 23 24 24 24 25 27 27 26 27 26 27 29 31 33 35 37 40 41 44 46 48 49 50 50 50 50
6 8 9 10 10 11 12 14 14 14 15 15 16 16 17 18 19 20 21 21 22 23 23 23 23 23 24 25 26 26 27 30 33 36 38 40 43 44 45 46 47 48 49 49
4 6 7 8 8 8 10 11 12 13 14 14 15 16 16 17 18 18 18 19 20 21 21 21 21 21 22 23 24 25 26 28 30 32 35 37 38 39 41 43 43 45 47 49
2 4 5 5 6 7 8 9 10 11 12 13 13 14 14 15 16 17 17 18 18 19 19 20 20 20 21 22 23 24 25 26 27 28 30 32 34 36 38 39 40 42 44 46
1 2 4 5 5 6 7 8 8 9 9 10 11 12 13 14 15 15 16 16 16 16 18 18 19 20 20 20 22 23 23 24 24 25 27 29 32 35 37 38 40 41 42 43
2 2 4 4 5 6 6 7 8 9 9 9 10 12 12 13 14 14 14 15 15 15 16 17 17 18 19 20 20 21 22 23 24 25 25 26 28 30 32 34 36 38 39 40
3 3 3 3 4 6 7 7 8 9 10 10 10 11 12 12 13 13 13 14 14 14 14 14 15 16 18 18 18 18 19 21 22 23 24 24 25 27 29 32 34 36 37 38
3 4 4 5 6 6 7 7 8 9 10 11 10 11 12 12 12 12 13 14 13 13 13 14 15 15 16 17 16 15 16 17 18 20 21 22 24 25 27 28 29 31 33 35
3 4 5 5 6 7 7 8 9 10 10 11 11 11 12 12 12 13 13 13 13 14 15 15 15 16 16 16 16 15 15 15 15 16 17 19 21 22 23 25 27 29 30 32
5 6 6 6 7 8 9 10 10 11 12 12 13 12 13 13 13 14 14 14 14 15 15 15 15 14 14 14 14 14 14 14 14 15 15 16 18 21 22 24 26 28 29 31
5 6 7 7 8 8 9 10 11 12 12 13 13 12 13 13 14 14 14 14 14 14 14 14 14 14 14 13 13 13 13 13 13 13 14 15 16 17 20 22 23 26 28 30
6 5 6 8 8 9 9 10 11 12 13 13 12 13 14 14 15 15 14 13 13 13 13 13 13 14 14 13 13 14 14 15 14 13 13 13 14 15 16 19 21 22 23 25
7 6 6 7 8 9 10 11 12 13 13 13 13 14 14 14 15 15 13 12 12 12 12 12 13 13 14 14 14 14 14 15 15 15 14 15 14 14 16 17 20 21 23 24
9 9 9 8 9 10 10 12 13 13 14 14 14 15 15 15 15 14 13 13 13 12 13 13 13 13 14 14 14 14 14 15 16 16 16 17 17 17 18 19 20 21 23 24
11 11 12 11 11 12 12 12 12 13 14 15 15 16 17 16 16 15 14 13 13 14 14 14 14 13 13 13 14 15 15 16 17 17 17 18 18 18 19 20 20 22 22 22
13 13 14 14 14 14 14 14 14 14 14 15 15 16 16 17 15 15 14 14 15 15 15 15 15 15 14 14 15 16 17 18 19 19 19 19 19 19 19 20 21 21 22 22
15 15 16 16 16 16 15 16 17 16 16 16 16 16 16 15 14 14 15 15 16 15 15 15 16 16 16 17 18 18 19 19 20 20 20 20 21 21 21 21 22 22 23 24
17 17 17 18 18 18 18 18 18 18 18 18 18 17 16 16 15 15 16 17 17 16 16 17 17 18 19 20 20 21 20 21 21 21 21 22 22 23 23 24 24 24 25 26
18 19 18 19 20 19 20 20 20 20 20 19 19 19 18 17 18 18 18 18 18 18 19 20 20 21 22 22 22 22 22 23 23 23 24 24 25 25 25 25 25 26 27 28
20 21 20 21 21 20 21 22 22 22 21 21 21 21 21 20 20 20 20 20 20 21 21 22 23 24 24 24 24 24 24 25 25 25 25 25 25 25 25 25 25 26 27 28
22 23 23 23 22 22 22 23 24 24 24 24 23 23 23 22 22 22 22 23 23 24 24 25 26 26 26 26 26 26 26 26 26 27 26 26 26 27 27 27 27 28 28 29
25 25 26 25 24 24 25 25 26 27 26 26 25 24 24 23 24 24 24 25 26 26 27 27 28 28 28 28 28 28 28 28 28 27 27 27 27 28 28 28 29 29 29 30
27 27 28 27 26 27 26 27 27 28 27 27 26 26 25 25 25 26 26 27 28 28 28 29 29 29 29 30 30 30 30 29 29 29 28 28 28 28 28 29 29 29 30 30
28 29 30 29 28 29 27 28 29 29 28 27 27 27 27 27 27 28 28 29 29 30 30 30 30 30 30 31 31 31 31 30 30 29 29 29 29 29 29 29 30 30 31 32

GEFSCGP_500_meanwind_156.txt.gz
Wind_Speed
11 12 14 16 19 21 22 23 22 23 24 25 25 26 26 27 27 28 28 29 30 30 30 31 31 32 33 34 35 36 36 36 37 39 40 41 42 44 45 45 46 47 48 49
9 10 11 13 16 17 19 20 21 22 23 23 23 23 24 25 25 26 26 27 28 29 29 30 30 32 33 33 34 35 36 36 36 38 40 41 42 43 44 44 45 46 47 49
8 8 9 10 12 14 15 17 18 19 20 20 21 21 22 23 24 25 25 26 27 28 28 28 29 30 31 32 33 33 34 35 36 37 38 40 41 41 42 44 44 44 45 47
7 8 8 9 10 11 12 14 15 17 18 18 19 20 20 22 23 23 24 25 26 27 27 27 28 29 30 30 31 32 33 34 34 34 35 37 39 41 42 42 43 44 45 46
5 7 9 9 9 10 12 13 14 15 16 18 19 21 20 21 22 23 24 25 26 26 27 27 27 28 29 28 29 30 31 31 31 33 33 34 36 38 40 41 43 44 45 46
5 6 8 9 9 10 11 13 14 15 16 17 18 20 20 21 21 22 22 23 25 26 26 26 26 27 27 27 28 28 29 29 30 31 32 32 33 35 37 39 40 41 41 42
4 6 7 8 9 10 11 12 13 14 15 16 16 18 18 19 20 21 21 22 24 24 25 25 25 25 26 26 26 26 27 27 28 28 29 30 31 32 34 36 38 39 39 39
5 5 7 8 8 9 10 12 13 15 15 14 15 16 17 18 18 19 20 22 22 23 24 26 26 25 25 25 25 26 26 26 26 27 28 28 29 30 32 33 35 36 36 37
6 6 7 8 9 10 11 12 13 14 14 14 14 15 16 17 17 18 19 20 21 22 23 25 25 25 25 25 25 26 26 26 25 26 27 27 28 27 28 30 31 33 36 37
7 7 8 9 9 10 11 12 12 13 14 15 14 14 15 16 16 17 18 20 20 21 22 23 24 25 25 25 25 25 25 25 25 26 27 26 25 25 26 28 30 31 33 35
8 8 9 9 10 11 12 13 14 15 16 16 16 14 16 16 16 17 18 19 20 21 21 22 23 24 25 25 25 24 24 25 24 24 24 24 24 25 25 25 27 27 29 31
9 9 9 10 11 12 13 13 15 16 17 17 17 16 17 17 17 18 19 19 20 20 20 21 23 23 23 23 24 25 25 25 25 24 24 23 24 25 24 25 26 27 28 28
10 11 11 12 13 13 14 14 15 16 17 17 18 16 18 19 19 19 20 20 21 21 22 23 23 23 24 24 24 25 25 25 24 23 23 23 23 24 24 25 25 26 26 27
12 12 13 13 14 14 15 15 16 17 17 18 17 17 18 20 20 21 21 21 21 22 22 23 23 23 24 24 24 24 23 23 24 24 24 23 23 24 24 24 24 24 24 24
14 14 14 14 15 15 15 16 17 18 18 19 18 19 19 21 22 22 23 22 22 22 22 22 23 24 24 24 23 23 23 23 23 23 22 22 22 23 23 23 24 23 23 24
15 15 15 15 16 17 17 17 18 19 19 20 20 20 21 23 23 24 24 23 23 23 23 23 23 23 23 22 22 21 22 22 22 22 22 22 23 23 23 23 23 24 24 24
17 18 18 18 18 19 19 19 20 20 21 22 22 21 23 23 23 24 25 24 24 23 23 22 21 21 21 21 20 20 20 21 22 23 23 23 23 23 23 22 23 23 24 25
20 20 21 21 21 21 21 21 22 22 23 24 23 23 23 23 23 23 24 24 24 23 22 21 21 22 21 21 21 21 21 21 22 22 22 22 22 22 22 23 24 24 24 25
22 23 23 23 24 23 23 23 24 24 24 24 24 24 24 24 23 24 25 24 24 24 23 23 22 22 22 22 22 22 22 22 22 22 23 23 22 22 23 23 23 24 25 26
25 25 26 25 26 26 25 26 26 26 25 25 25 25 25 25 25 25 25 25 24 24 24 24 24 24 24 24 24 24 24 23 23 23 24 24 24 25 24 25 25 26 27 28
27 27 27 27 28 27 27 27 27 27 28 27 27 27 26 26 27 26 25 24 24 25 25 25 25 25 25 25 25 25 24 24 24 25 25 25 25 26 26 26 27 27 28 29
29 29 29 29 30 28 28 29 29 29 29 29 29 29 28 28 28 27 26 26 26 26 26 26 25 25 25 25 25 25 25 26 25 26 27 27 28 28 29 29 29 29 29 29
31 30 31 31 31 30 30 30 31 31 31 31 30 30 30 30 29 29 28 27 27 27 27 27 26 26 26 26 26 26 27 27 27 27 28 29 29 29 29 30 30 30 29 29
33 32 34 34 32 32 32 32 32 32 33 33 32 31 31 31 30 30 29 28 29 29 28 28 28 27 27 28 28 28 29 29 29 30 30 29 29 29 29 29 29 29 28 28
35 35 36 36 34 34 34 34 34 34 34 34 33 33 32 32 31 30 30 30 30 30 29 29 29 29 29 29 29 30 30 31 31 30 30 29 29 29 29 29 28 28 28 29
36 37 38 37 36 37 36 35 35 35 35 35 34 34 33 33 31 31 31 31 31 31 30 30 30 30 31 31 31 31 31 31 30 29 29 29 29 29 29 29 28 28 29 30

GEFSCGP_500_meanwind_162.txt.gz
Wind_Speed
7 9 11 13 15 16 16 17 18 19 20 21 22 22 23 24 24 25 25 25 25 26 27 28 28 29 29 30 31 31 32 32 33 34 35 37 38 39 40 41 42 43 43 44
6 8 9 11 13 14 15 16 17 19 20 21 22 22 23 24 24 24 25 25 25 26 26 26 28 28 29 30 31 32 32 32 33 33 35 36 38 39 40 40 41 43 44 45
3 6 8 10 12 14 14 15 16 17 19 20 21 22 22 23 23 23 24 25 25 25 25 26 28 29 29 30 31 32 32 32 33 33 34 35 36 38 40 40 41 42 43 44
2 4 6 9 11 13 13 14 15 16 18 19 20 21 22 22 23 23 24 24 25 25 26 27 28 28 29 30 31 31 32 33 34 33 33 34 35 37 38 40 41 42 42 43
3 4 5 7 10 11 12 13 14 15 16 18 20 21 21 22 23 24 24 25 25 26 26 27 28 28 29 29 30 31 32 33 33 34 34 35 35 36 37 38 39 41 42 42
4 4 5 7 8 10 11 12 13 14 15 17 18 20 21 21 22 23 24 25 26 27 27 27 27 28 29 29 30 30 31 32 33 33 34 34 35 35 35 36 38 39 39 40
4 5 6 6 8 9 11 12 13 14 15 16 16 18 19 20 21 23 24 25 26 27 28 28 28 28 29 29 29 30 30 31 32 33 34 34 34 34 35 36 36 37 37 39
5 6 6 7 7 9 10 12 13 14 15 15 16 17 19 20 20 21 23 24 25 26 27 27 28 28 29 29 29 29 30 31 32 32 33 34 34 34 34 35 35 36 36 37
7 6 7 7 8 9 10 11 13 14 15 16 16 17 18 18 19 19 20 22 23 25 26 27 28 29 29 30 30 30 31 31 31 32 32 33 34 34 34 34 34 35 35 37
8 8 8 9 9 10 11 12 12 13 15 16 16 16 17 17 18 19 20 21 22 23 25 26 27 28 29 30 31 31 31 31 31 31 31 31 31 32 32 33 33 34 35 36
9 9 9 10 10 11 11 12 13 14 15 16 16 15 16 17 18 19 20 22 23 24 24 24 25 26 27 28 29 29 29 29 30 30 30 30 30 30 30 31 32 33 33 34
11 10 10 10 11 12 12 13 14 16 16 17 17 15 17 18 19 20 21 22 22 23 24 25 26 27 27 28 28 28 28 28 29 29 29 30 30 29 30 30 31 31 32 32
12 12 12 12 12 12 13 14 15 17 18 18 18 17 18 19 20 21 22 22 22 23 24 25 26 27 28 28 28 28 28 28 28 28 28 28 28 29 29 28 28 28 29 29
14 13 14 14 14 14 14 15 16 18 19 18 18 18 19 21 21 22 23 23 24 24 25 25 26 27 28 28 28 28 27 27 27 27 27 28 28 28 28 27 27 27 27 28
16 15 15 16 16 16 16 17 18 19 19 20 20 21 22 23 23 23 24 25 25 25 25 25 26 27 27 28 28 28 27 27 27 27 27 27 27 28 27 27 27 27 28 28
17 18 18 18 18 18 18 18 20 20 20 21 22 22 24 25 25 25 25 25 25 25 26 26 26 27 27 27 27 27 28 28 27 27 27 27 27 27 28 28 27 27 28 28
20 21 21 21 20 21 20 20 21 21 22 23 23 24 25 26 25 25 25 25 26 25 26 26 26 26 27 27 27 27 27 27 27 26 26 26 26 27 27 27 27 27 27 28
23 23 24 24 23 23 22 22 22 23 23 24 25 26 26 26 26 26 26 26 27 27 27 27 26 27 27 27 28 28 28 27 26 25 25 25 25 26 26 26 26 26 27 27
25 25 26 26 26 26 24 25 25 25 25 26 27 27 27 27 27 27 27 27 28 27 27 27 27 27 27 28 28 28 28 27 25 25 25 25 25 25 25 26 26 27 27 27
27 27 28 28 29 28 27 27 27 28 28 28 28 28 27 27 27 27 28 27 27 27 28 28 28 28 28 27 27 27 27 26 25 25 24 24 25 25 25 26 26 26 27 27
30 30 30 30 31 30 28 29 30 30 30 29 29 28 27 28 28 28 29 28 28 29 29 29 29 28 28 27 27 27 27 26 25 25 25 25 25 26 26 26 25 25 25 26
32 32 32 32 32 31 30 30 31 31 31 30 30 29 28 28 29 28 28 28 28 28 29 29 29 28 28 28 27 27 26 25 26 26 25 26 25 25 25 25 25 25 26 26
33 33 34 34 34 32 31 31 32 32 32 31 31 31 30 30 30 29 29 29 28 28 29 29 29 28 27 27 27 26 25 25 26 25 26 26 26 26 26 25 25 25 25 25
36 35 36 36 35 34 34 34 34 34 33 32 32 32 32 32 32 31 30 29 29 29 29 29 28 27 27 26 26 26 26 26 26 26 26 27 27 26 26 26 26 26 26 26
37 37 37 37 36 36 36 35 35 35 34 34 33 33 33 33 33 32 31 30 30 30 30 30 29 28 28 27 26 26 27 27 27 27 27 27 27 27 26 26 26 27 27 27
36 37 38 38 37 38 37 36 36 36 35 35 34 34 34 34 33 32 31 31 31 30 30 29 29 29 29 28 28 28 28 28 27 27 28 28 28 28 27 27 28 28 28 29

GEFSCGP_500_meanwind_168.txt.gz
Wind_Speed
8 9 9 10 11 13 14 16 18 19 20 20 21 21 22 23 24 24 25 25 26 26 27 27 27 28 29 29 30 30 31 32 32 33 33 34 34 35 36 37 37 37 38 39
7 8 8 8 10 11 12 14 16 18 19 19 20 21 21 21 22 24 24 25 25 25 25 26 26 28 28 29 30 30 31 32 33 34 34 34 35 36 37 38 38 39 39 40
7 7 7 8 8 10 11 13 15 16 18 20 20 20 21 21 21 22 24 24 25 25 25 25 26 27 28 29 30 31 32 33 34 35 36 36 36 36 37 38 38 38 39 39
7 6 6 7 8 9 11 13 14 15 17 19 20 21 21 22 22 23 24 24 25 26 26 27 27 28 28 29 30 32 33 34 35 36 36 36 36 37 37 37 37 38 39 39
7 7 7 8 9 9 10 12 14 16 17 18 19 21 21 22 23 23 24 25 25 26 27 27 28 29 30 31 32 33 34 35 36 37 37 38 38 38 38 38 38 38 39 39
8 8 9 9 10 10 11 12 14 16 17 18 19 21 21 22 23 24 25 25 26 27 27 28 29 30 31 32 33 34 35 36 37 37 38 38 39 39 39 39 39 39 39 40
9 9 10 10 11 11 12 13 14 15 16 17 18 21 22 23 24 25 26 27 27 28 28 28 30 31 32 32 34 35 36 36 37 38 38 38 39 39 39 39 39 39 39 39
12 11 11 11 12 12 13 14 15 17 17 17 18 20 20 22 24 26 27 28 29 29 29 30 31 32 33 34 35 35 36 36 37 38 39 39 39 39 39 39 39 39 39 39
14 13 13 13 13 14 15 15 16 18 19 19 19 19 19 21 23 25 27 28 30 31 31 32 33 33 34 34 35 35 36 36 37 38 38 39 39 39 39 39 39 38 38 39
17 15 14 14 14 15 16 16 17 19 20 21 21 20 20 20 22 24 26 27 29 30 31 32 33 34 34 34 35 35 36 36 37 37 37 38 38 38 37 38 38 38 38 38
18 17 16 16 16 16 17 17 18 20 21 22 22 21 21 22 22 23 25 26 28 29 30 31 32 33 34 35 35 36 36 36 37 37 37 37 37 38 38 38 37 37 37 38
19 19 17 17 16 17 17 18 19 20 22 23 24 22 22 23 24 25 26 26 27 29 30 31 31 32 33 34 35 36 37 37 37 37 37 36 37 37 37 37 37 37 37 37
20 20 19 18 18 18 18 19 20 21 22 23 24 23 24 25 25 26 27 27 28 28 29 31 32 33 34 34 35 35 36 36 37 37 37 36 36 36 36 36 36 36 36 35
22 21 20 20 20 20 20 20 21 23 24 24 24 24 25 26 27 27 28 28 29 30 30 31 32 33 34 35 35 36 36 36 36 36 37 36 36 36 36 35 35 35 34 34
24 23 21 21 21 22 22 22 23 24 25 26 25 26 26 28 28 29 30 30 31 32 32 33 33 34 34 35 35 36 36 36 37 37 37 36 36 35 34 34 34 33 33 32
25 25 24 23 23 24 24 24 25 26 27 27 28 28 28 29 30 30 31 32 33 33 34 34 35 35 35 35 36 35 36 36 36 36 36 36 35 34 33 33 33 32 32 32
28 27 27 26 26 27 26 26 27 28 28 29 29 29 30 31 32 31 32 33 33 34 35 35 36 35 36 36 35 35 35 36 35 35 35 35 34 34 34 33 32 32 32 32
29 29 30 29 29 30 29 28 29 29 29 30 30 31 31 32 32 32 32 33 33 34 35 36 35 35 35 35 35 35 36 36 35 35 34 33 33 33 33 33 32 32 32 31
31 31 32 32 32 32 30 30 30 30 30 31 31 31 32 32 32 32 33 33 34 34 34 35 35 35 35 35 35 35 35 35 35 34 33 32 32 32 32 31 31 31 30 30
33 33 33 33 34 34 32 32 33 33 32 32 32 32 33 33 33 32 33 34 34 34 35 34 34 35 35 35 35 34 34 34 34 33 32 31 31 31 30 30 29 29 29 29
34 35 34 34 36 36 34 34 34 35 35 35 35 35 35 35 34 34 34 35 35 35 35 35 34 34 34 33 33 32 32 32 32 31 31 30 30 30 30 29 29 28 28 28
36 37 37 37 38 37 36 36 36 36 37 37 36 36 37 36 36 36 35 35 36 36 36 35 35 34 33 32 32 31 31 31 31 31 30 29 28 28 28 28 29 28 28 28
38 37 39 40 39 38 38 37 37 38 38 38 38 38 37 37 37 37 36 36 36 36 36 35 34 34 32 32 31 31 31 31 31 30 29 28 28 27 26 26 27 27 28 28
40 39 40 41 40 39 39 39 39 39 39 39 38 38 38 38 38 37 37 37 37 36 36 35 35 34 32 31 31 31 31 31 30 29 28 28 28 27 26 27 27 27 27 28
41 41 41 42 41 41 40 40 40 40 40 39 39 40 39 38 38 38 38 37 37 36 36 36 35 34 33 32 32 32 31 31 30 29 28 28 27 27 27 27 26 27 27 28
41 41 43 43 41 43 42 41 41 42 41 40 40 40 39 39 39 39 38 38 37 37 37 36 35 35 34 32 32 32 31 31 30 29 28 28 28 27 27 27 27 27 28 28